PTOJE SBBR-SBRD

Flight info

Callsign PTOJE
Flight time 1h 47m
Altitude 24000
Route LODUV EGDAT MABMA
Aircraft PAY2/L-SDFGLRY/S

Departure

Time 2026-05-05 12:44
Airport Presidente Juscelino Kubitschek International Airport (SBBR)

Arrival

Time 2026-05-05 14:31
Airport Maestro Marinho Franco Airport (SBRD)
Time Latitude Longitude Altitude Speed Heading
2026-05-05 12:27 -15.86871 -47.93186 3465 ft 0 kts 86°
2026-05-05 12:37 -15.86871 -47.93181 3466 ft 3 kts 86°
2026-05-05 12:38 -15.86842 -47.93167 3466 ft 6 kts 32°
2026-05-05 12:38 -15.86831 -47.93133 3466 ft 6 kts 90°
2026-05-05 12:38 -15.86830 -47.93098 3467 ft 6 kts 86°
2026-05-05 12:39 -15.86826 -47.93038 3467 ft 10 kts 88°
2026-05-05 12:39 -15.86820 -47.92955 3469 ft 12 kts 87°
2026-05-05 12:39 -15.86811 -47.92844 3471 ft 17 kts 86°
2026-05-05 12:39 -15.86805 -47.92738 3473 ft 14 kts 86°
2026-05-05 12:40 -15.86800 -47.92636 3474 ft 14 kts 86°
2026-05-05 12:40 -15.86782 -47.92531 3477 ft 14 kts 48°
2026-05-05 12:40 -15.86683 -47.92471 3475 ft 17 kts 26°
2026-05-05 12:40 -15.86582 -47.92419 3474 ft 13 kts 15°
2026-05-05 12:41 -15.86531 -47.92479 3472 ft 12 kts 268°
2026-05-05 12:41 -15.86538 -47.92579 3471 ft 16 kts 264°
2026-05-05 12:41 -15.86547 -47.92679 3469 ft 10 kts 265°
2026-05-05 12:41 -15.86552 -47.92753 3468 ft 9 kts 288°
2026-05-05 12:42 -15.86498 -47.92767 3467 ft 7 kts 356°
2026-05-05 12:42 -15.86454 -47.92769 3466 ft 5 kts 357°
2026-05-05 12:42 -15.86413 -47.92763 3465 ft 8 kts 28°
2026-05-05 12:42 -15.86353 -47.92711 3465 ft 14 kts 73°
2026-05-05 12:43 -15.86342 -47.92501 3469 ft 55 kts 87°
2026-05-05 12:43 -15.86311 -47.91904 3564 ft 98 kts 91°
2026-05-05 12:43 -15.86247 -47.91149 3803 ft 110 kts 87°
2026-05-05 12:43 -15.86158 -47.90340 4095 ft 118 kts 88°
2026-05-05 12:44 -15.86089 -47.89433 4367 ft 136 kts 88°
2026-05-05 12:44 -15.86018 -47.88441 4806 ft 140 kts 86°
2026-05-05 12:44 -15.85810 -47.87463 5258 ft 143 kts 63°
2026-05-05 12:44 -15.85019 -47.86882 5733 ft 148 kts 14°
2026-05-05 12:45 -15.83970 -47.87032 6096 ft 159 kts 342°
2026-05-05 12:45 -15.83125 -47.87753 6535 ft 162 kts 304°
2026-05-05 12:45 -15.82822 -47.88889 6813 ft 171 kts 265°
2026-05-05 12:45 -15.83193 -47.90065 7056 ft 174 kts 235°
2026-05-05 12:46 -15.83886 -47.91040 7543 ft 161 kts 225°
2026-05-05 12:46 -15.84597 -47.91942 7906 ft 163 kts 228°
2026-05-05 12:46 -15.85294 -47.92868 8259 ft 165 kts 229°
2026-05-05 12:46 -15.86003 -47.93804 8627 ft 166 kts 229°
2026-05-05 12:47 -15.86718 -47.94744 8995 ft 166 kts 229°
2026-05-05 12:47 -15.87441 -47.95681 9347 ft 167 kts 229°
2026-05-05 12:47 -15.88160 -47.96612 9687 ft 167 kts 229°
2026-05-05 12:47 -15.88890 -47.97552 10031 ft 166 kts 229°
2026-05-05 12:48 -15.89629 -47.98497 10371 ft 171 kts 229°
2026-05-05 12:48 -15.90375 -47.99459 10878 ft 171 kts 229°
2026-05-05 12:48 -15.91110 -48.00410 11373 ft 172 kts 229°
2026-05-05 12:48 -15.91854 -48.01384 11819 ft 174 kts 229°
2026-05-05 12:49 -15.92615 -48.02384 12275 ft 177 kts 229°
2026-05-05 12:49 -15.93371 -48.03379 12801 ft 179 kts 229°
2026-05-05 12:49 -15.94102 -48.04439 13328 ft 181 kts 234°
2026-05-05 12:49 -15.94771 -48.05526 13854 ft 181 kts 236°
2026-05-05 12:50 -15.95421 -48.06639 14368 ft 181 kts 237°
2026-05-05 12:50 -15.96061 -48.07757 14859 ft 182 kts 237°
2026-05-05 12:50 -15.96705 -48.08892 15338 ft 182 kts 237°
2026-05-05 12:50 -15.97342 -48.10009 15819 ft 181 kts 238°
2026-05-05 12:51 -15.97982 -48.11138 16302 ft 181 kts 238°
2026-05-05 12:51 -15.98605 -48.12246 16781 ft 180 kts 238°
2026-05-05 12:51 -15.99242 -48.13364 17242 ft 180 kts 238°
2026-05-05 12:51 -15.99872 -48.14475 17682 ft 179 kts 238°
2026-05-05 12:52 -16.00510 -48.15601 18093 ft 180 kts 238°
2026-05-05 12:52 -16.01142 -48.16717 18488 ft 181 kts 238°
2026-05-05 12:52 -16.01776 -48.17838 18878 ft 182 kts 238°
2026-05-05 12:52 -16.02419 -48.18975 19257 ft 182 kts 238°
2026-05-05 12:53 -16.03057 -48.20102 19611 ft 184 kts 238°
2026-05-05 12:53 -16.03713 -48.21263 19973 ft 184 kts 238°
2026-05-05 12:53 -16.04352 -48.22395 20323 ft 185 kts 238°
2026-05-05 12:53 -16.05001 -48.23542 20674 ft 184 kts 238°
2026-05-05 12:54 -16.06299 -48.25834 21380 ft 182 kts 238°
2026-05-05 12:54 -16.06937 -48.26962 21735 ft 180 kts 238°
2026-05-05 12:54 -16.07561 -48.28068 22084 ft 178 kts 238°
2026-05-05 12:55 -16.08192 -48.29182 22441 ft 176 kts 238°
2026-05-05 12:55 -16.08803 -48.30265 22799 ft 173 kts 238°
2026-05-05 12:55 -16.09399 -48.31319 23154 ft 170 kts 238°
2026-05-05 12:55 -16.09992 -48.32366 23513 ft 166 kts 238°
2026-05-05 12:56 -16.10574 -48.33395 23863 ft 163 kts 238°
2026-05-05 12:56 -16.11147 -48.34413 24122 ft 165 kts 239°
2026-05-05 12:56 -16.11726 -48.35468 24274 ft 174 kts 239°
2026-05-05 12:56 -16.12345 -48.36613 24293 ft 188 kts 240°
2026-05-05 12:57 -16.13010 -48.37850 24294 ft 201 kts 239°
2026-05-05 12:57 -16.13713 -48.39130 24289 ft 208 kts 239°
2026-05-05 12:57 -16.14446 -48.40453 24286 ft 212 kts 239°
2026-05-05 12:57 -16.15190 -48.41787 24286 ft 216 kts 239°
2026-05-05 12:58 -16.15949 -48.43142 24283 ft 219 kts 238°
2026-05-05 12:58 -16.16725 -48.44522 24284 ft 221 kts 239°
2026-05-05 12:58 -16.17502 -48.45907 24280 ft 223 kts 238°
2026-05-05 12:58 -16.18283 -48.47295 24277 ft 225 kts 238°
2026-05-05 12:59 -16.19082 -48.48712 24277 ft 226 kts 238°
2026-05-05 12:59 -16.19879 -48.50132 24273 ft 227 kts 238°
2026-05-05 12:59 -16.20684 -48.51561 24274 ft 228 kts 238°
2026-05-05 13:00 -16.22288 -48.54407 24280 ft 229 kts 239°
2026-05-05 13:00 -16.23100 -48.55848 24279 ft 230 kts 239°
2026-05-05 13:01 -16.25528 -48.60166 24271 ft 231 kts 239°
2026-05-05 13:01 -16.26335 -48.61601 24271 ft 231 kts 239°
2026-05-05 13:01 -16.27154 -48.63059 24275 ft 231 kts 239°
2026-05-05 13:01 -16.27955 -48.64488 24272 ft 231 kts 239°
2026-05-05 13:02 -16.28772 -48.65945 24274 ft 232 kts 239°
2026-05-05 13:02 -16.29584 -48.67390 24275 ft 232 kts 238°
2026-05-05 13:02 -16.30402 -48.68846 24273 ft 232 kts 239°
2026-05-05 13:02 -16.31213 -48.70291 24273 ft 232 kts 239°
2026-05-05 13:03 -16.32035 -48.71751 24270 ft 232 kts 238°
2026-05-05 13:03 -16.32843 -48.73190 24271 ft 232 kts 238°
2026-05-05 13:03 -16.33665 -48.74656 24272 ft 232 kts 239°
2026-05-05 13:03 -16.34477 -48.76102 24270 ft 233 kts 239°
2026-05-05 13:04 -16.35296 -48.77561 24272 ft 233 kts 239°
2026-05-05 13:04 -16.36104 -48.79002 24271 ft 233 kts 239°
2026-05-05 13:04 -16.36928 -48.80471 24271 ft 233 kts 239°
2026-05-05 13:04 -16.37533 -48.82008 24279 ft 234 kts 259°
2026-05-05 13:05 -16.37686 -48.83712 24271 ft 236 kts 263°
2026-05-05 13:05 -16.37825 -48.85408 24271 ft 236 kts 263°
2026-05-05 13:05 -16.37972 -48.87119 24273 ft 236 kts 262°
2026-05-05 13:05 -16.38114 -48.88820 24271 ft 236 kts 262°
2026-05-05 13:06 -16.38262 -48.90522 24271 ft 236 kts 262°
2026-05-05 13:06 -16.38408 -48.92222 24268 ft 237 kts 262°
2026-05-05 13:06 -16.38552 -48.93923 24271 ft 237 kts 262°
2026-05-05 13:06 -16.38697 -48.95612 24269 ft 237 kts 262°
2026-05-05 13:07 -16.38844 -48.97332 24267 ft 237 kts 262°
2026-05-05 13:07 -16.38989 -48.99048 24258 ft 237 kts 262°
2026-05-05 13:07 -16.39137 -49.00758 24251 ft 237 kts 262°
2026-05-05 13:07 -16.39282 -49.02448 24254 ft 237 kts 262°
2026-05-05 13:08 -16.39429 -49.04152 24255 ft 237 kts 262°
2026-05-05 13:08 -16.39575 -49.05868 24255 ft 237 kts 262°
2026-05-05 13:08 -16.39720 -49.07585 24254 ft 237 kts 262°
2026-05-05 13:08 -16.39865 -49.09281 24252 ft 238 kts 262°
2026-05-05 13:09 -16.40009 -49.10999 24250 ft 237 kts 262°
2026-05-05 13:09 -16.40154 -49.12720 24255 ft 237 kts 262°
2026-05-05 13:09 -16.40302 -49.14431 24253 ft 237 kts 262°
2026-05-05 13:09 -16.40445 -49.16127 24250 ft 237 kts 262°
2026-05-05 13:10 -16.40591 -49.17830 24247 ft 237 kts 262°
2026-05-05 13:10 -16.40735 -49.19549 24243 ft 237 kts 262°
2026-05-05 13:10 -16.40880 -49.21246 24243 ft 237 kts 262°
2026-05-05 13:10 -16.41022 -49.22951 24241 ft 237 kts 262°
2026-05-05 13:11 -16.41165 -49.24662 24238 ft 237 kts 262°
2026-05-05 13:11 -16.41311 -49.26388 24237 ft 238 kts 262°
2026-05-05 13:11 -16.41455 -49.28088 24239 ft 238 kts 262°
2026-05-05 13:11 -16.41599 -49.29796 24240 ft 238 kts 262°
2026-05-05 13:12 -16.41744 -49.31513 24237 ft 238 kts 262°
2026-05-05 13:12 -16.41888 -49.33238 24235 ft 238 kts 262°
2026-05-05 13:12 -16.42030 -49.34932 24237 ft 238 kts 262°
2026-05-05 13:12 -16.42171 -49.36649 24237 ft 238 kts 262°
2026-05-05 13:13 -16.42316 -49.38354 24237 ft 238 kts 262°
2026-05-05 13:13 -16.42457 -49.40073 24234 ft 238 kts 262°
2026-05-05 13:13 -16.42601 -49.41793 24232 ft 238 kts 262°
2026-05-05 13:13 -16.42745 -49.43513 24235 ft 238 kts 262°
2026-05-05 13:14 -16.42887 -49.45210 24233 ft 238 kts 262°
2026-05-05 13:14 -16.43032 -49.46937 24232 ft 238 kts 262°
2026-05-05 13:14 -16.43173 -49.48653 24233 ft 238 kts 262°
2026-05-05 13:14 -16.43313 -49.50343 24234 ft 238 kts 262°
2026-05-05 13:15 -16.43455 -49.52061 24234 ft 238 kts 262°
2026-05-05 13:15 -16.43596 -49.53775 24232 ft 238 kts 262°
2026-05-05 13:15 -16.43739 -49.55494 24233 ft 238 kts 262°
2026-05-05 13:15 -16.43885 -49.57225 24231 ft 238 kts 262°
2026-05-05 13:16 -16.44024 -49.58930 24230 ft 238 kts 262°
2026-05-05 13:16 -16.44165 -49.60658 24229 ft 238 kts 262°
2026-05-05 13:16 -16.44306 -49.62364 24229 ft 238 kts 262°
2026-05-05 13:16 -16.44450 -49.64073 24228 ft 238 kts 262°
2026-05-05 13:17 -16.44589 -49.65807 24230 ft 238 kts 262°
2026-05-05 13:17 -16.44730 -49.67529 24229 ft 238 kts 262°
2026-05-05 13:17 -16.44874 -49.69246 24228 ft 238 kts 262°
2026-05-05 13:17 -16.45014 -49.70961 24228 ft 239 kts 262°
2026-05-05 13:18 -16.45156 -49.72689 24226 ft 239 kts 262°
2026-05-05 13:18 -16.45296 -49.74394 24226 ft 239 kts 262°
2026-05-05 13:18 -16.45434 -49.76112 24225 ft 239 kts 262°
2026-05-05 13:18 -16.45575 -49.77834 24225 ft 239 kts 262°
2026-05-05 13:19 -16.45718 -49.79570 24226 ft 239 kts 262°
2026-05-05 13:19 -16.45857 -49.81277 24226 ft 239 kts 262°
2026-05-05 13:19 -16.45996 -49.83015 24228 ft 239 kts 262°
2026-05-05 13:19 -16.46137 -49.84733 24230 ft 239 kts 262°
2026-05-05 13:20 -16.46278 -49.86462 24230 ft 239 kts 262°
2026-05-05 13:20 -16.46419 -49.88185 24233 ft 239 kts 262°
2026-05-05 13:20 -16.46558 -49.89890 24231 ft 239 kts 262°
2026-05-05 13:20 -16.46695 -49.91614 24233 ft 239 kts 262°
2026-05-05 13:21 -16.46836 -49.93342 24234 ft 239 kts 262°
2026-05-05 13:21 -16.46973 -49.95059 24234 ft 239 kts 262°
2026-05-05 13:21 -16.47116 -49.96807 24235 ft 239 kts 262°
2026-05-05 13:21 -16.47255 -49.98533 24237 ft 239 kts 262°
2026-05-05 13:22 -16.47393 -50.00248 24237 ft 239 kts 262°
2026-05-05 13:22 -16.47535 -50.01986 24237 ft 240 kts 262°
2026-05-05 13:22 -16.47671 -50.03698 24236 ft 240 kts 262°
2026-05-05 13:22 -16.47811 -50.05434 24234 ft 240 kts 262°
2026-05-05 13:23 -16.47948 -50.07160 24231 ft 240 kts 262°
2026-05-05 13:23 -16.48088 -50.08878 24232 ft 240 kts 262°
2026-05-05 13:23 -16.48225 -50.10620 24231 ft 240 kts 262°
2026-05-05 13:23 -16.48368 -50.12363 24228 ft 240 kts 262°
2026-05-05 13:24 -16.48503 -50.14081 24226 ft 240 kts 262°
2026-05-05 13:24 -16.48641 -50.15806 24224 ft 240 kts 262°
2026-05-05 13:24 -16.48778 -50.17531 24224 ft 240 kts 262°
2026-05-05 13:24 -16.48918 -50.19264 24222 ft 240 kts 262°
2026-05-05 13:25 -16.49053 -50.21010 24219 ft 240 kts 262°
2026-05-05 13:25 -16.49191 -50.22731 24215 ft 240 kts 262°
2026-05-05 13:25 -16.49331 -50.24473 24217 ft 240 kts 262°
2026-05-05 13:25 -16.49466 -50.26191 24216 ft 240 kts 262°
2026-05-05 13:26 -16.49606 -50.27923 24215 ft 240 kts 262°
2026-05-05 13:26 -16.49742 -50.29664 24212 ft 240 kts 262°
2026-05-05 13:26 -16.49879 -50.31402 24210 ft 240 kts 262°
2026-05-05 13:26 -16.50018 -50.33132 24207 ft 241 kts 262°
2026-05-05 13:27 -16.50154 -50.34860 24203 ft 241 kts 262°
2026-05-05 13:27 -16.50291 -50.36603 24200 ft 241 kts 262°
2026-05-05 13:27 -16.50427 -50.38335 24197 ft 241 kts 262°
2026-05-05 13:27 -16.50565 -50.40083 24194 ft 241 kts 262°
2026-05-05 13:28 -16.50700 -50.41807 24186 ft 241 kts 262°
2026-05-05 13:28 -16.50838 -50.43543 24184 ft 241 kts 262°
2026-05-05 13:28 -16.50973 -50.45296 24183 ft 241 kts 262°
2026-05-05 13:28 -16.51107 -50.47010 24183 ft 241 kts 262°
2026-05-05 13:29 -16.51244 -50.48770 24181 ft 241 kts 262°
2026-05-05 13:29 -16.51380 -50.50484 24178 ft 241 kts 262°
2026-05-05 13:29 -16.51518 -50.52245 24178 ft 241 kts 262°
2026-05-05 13:29 -16.51651 -50.53971 24181 ft 241 kts 262°
2026-05-05 13:30 -16.51788 -50.55708 24183 ft 241 kts 262°
2026-05-05 13:30 -16.51921 -50.57448 24183 ft 241 kts 262°
2026-05-05 13:30 -16.52056 -50.59170 24185 ft 241 kts 262°
2026-05-05 13:30 -16.52193 -50.60930 24188 ft 241 kts 262°
2026-05-05 13:31 -16.52330 -50.62662 24190 ft 241 kts 262°
2026-05-05 13:31 -16.52465 -50.64399 24189 ft 241 kts 262°
2026-05-05 13:31 -16.52599 -50.66137 24191 ft 241 kts 262°
2026-05-05 13:31 -16.52731 -50.67863 24195 ft 241 kts 262°
2026-05-05 13:32 -16.52865 -50.69598 24198 ft 241 kts 262°
2026-05-05 13:32 -16.52998 -50.71337 24201 ft 241 kts 262°
2026-05-05 13:32 -16.53133 -50.73083 24207 ft 241 kts 262°
2026-05-05 13:32 -16.53269 -50.74829 24206 ft 241 kts 262°
2026-05-05 13:33 -16.53403 -50.76561 24204 ft 241 kts 262°
2026-05-05 13:33 -16.53538 -50.78305 24201 ft 242 kts 262°
2026-05-05 13:33 -16.53672 -50.80033 24198 ft 242 kts 263°
2026-05-05 13:33 -16.53802 -50.81778 24194 ft 242 kts 262°
2026-05-05 13:34 -16.53936 -50.83527 24193 ft 242 kts 262°
2026-05-05 13:34 -16.54068 -50.85274 24190 ft 242 kts 262°
2026-05-05 13:34 -16.54204 -50.87041 24187 ft 242 kts 262°
2026-05-05 13:34 -16.54337 -50.88766 24184 ft 242 kts 262°
2026-05-05 13:35 -16.54473 -50.90536 24187 ft 242 kts 262°
2026-05-05 13:35 -16.54606 -50.92290 24186 ft 242 kts 263°
2026-05-05 13:35 -16.54737 -50.94018 24185 ft 242 kts 262°
2026-05-05 13:35 -16.54869 -50.95786 24182 ft 242 kts 262°
2026-05-05 13:36 -16.55001 -50.97514 24182 ft 242 kts 262°
2026-05-05 13:36 -16.55134 -50.99271 24181 ft 242 kts 262°
2026-05-05 13:36 -16.55269 -51.01006 24179 ft 242 kts 262°
2026-05-05 13:36 -16.55401 -51.02752 24173 ft 242 kts 263°
2026-05-05 13:37 -16.55534 -51.04518 24170 ft 242 kts 262°
2026-05-05 13:37 -16.55666 -51.06265 24173 ft 242 kts 263°
2026-05-05 13:37 -16.55797 -51.08005 24177 ft 242 kts 263°
2026-05-05 13:37 -16.55928 -51.09751 24175 ft 242 kts 262°
2026-05-05 13:38 -16.56058 -51.11489 24179 ft 242 kts 262°
2026-05-05 13:38 -16.56189 -51.13237 24182 ft 242 kts 263°
2026-05-05 13:38 -16.56319 -51.14975 24180 ft 242 kts 262°
2026-05-05 13:38 -16.56451 -51.16746 24177 ft 242 kts 263°
2026-05-05 13:39 -16.56583 -51.18475 24173 ft 242 kts 262°
2026-05-05 13:39 -16.56712 -51.20221 24169 ft 243 kts 262°
2026-05-05 13:39 -16.56846 -51.21972 24166 ft 243 kts 263°
2026-05-05 13:39 -16.56977 -51.23740 24167 ft 243 kts 262°
2026-05-05 13:40 -16.57108 -51.25494 24169 ft 243 kts 262°
2026-05-05 13:40 -16.57238 -51.27246 24164 ft 243 kts 262°
2026-05-05 13:40 -16.57365 -51.28981 24168 ft 243 kts 262°
2026-05-05 13:40 -16.57496 -51.30746 24164 ft 243 kts 262°
2026-05-05 13:41 -16.57627 -51.32496 24169 ft 243 kts 262°
2026-05-05 13:41 -16.57757 -51.34242 24172 ft 243 kts 262°
2026-05-05 13:41 -16.57889 -51.35998 24174 ft 243 kts 262°
2026-05-05 13:41 -16.58019 -51.37758 24175 ft 243 kts 262°
2026-05-05 13:42 -16.58147 -51.39518 24177 ft 243 kts 262°
2026-05-05 13:42 -16.58277 -51.41275 24179 ft 243 kts 262°
2026-05-05 13:42 -16.58407 -51.43029 24178 ft 243 kts 262°
2026-05-05 13:42 -16.58537 -51.44783 24181 ft 243 kts 263°
2026-05-05 13:43 -16.58667 -51.46533 24181 ft 243 kts 262°
2026-05-05 13:43 -16.58796 -51.48285 24180 ft 243 kts 263°
2026-05-05 13:43 -16.58921 -51.50029 24180 ft 243 kts 262°
2026-05-05 13:43 -16.59048 -51.51783 24181 ft 243 kts 262°
2026-05-05 13:44 -16.59177 -51.53548 24179 ft 243 kts 262°
2026-05-05 13:44 -16.59308 -51.55307 24179 ft 243 kts 262°
2026-05-05 13:44 -16.59435 -51.57058 24181 ft 243 kts 262°
2026-05-05 13:44 -16.59562 -51.58817 24181 ft 243 kts 262°
2026-05-05 13:45 -16.59690 -51.60560 24179 ft 243 kts 262°
2026-05-05 13:45 -16.59820 -51.62321 24174 ft 243 kts 263°
2026-05-05 13:45 -16.59948 -51.64085 24171 ft 244 kts 262°
2026-05-05 13:45 -16.60077 -51.65837 24174 ft 243 kts 263°
2026-05-05 13:46 -16.60206 -51.67608 24176 ft 243 kts 263°
2026-05-05 13:46 -16.60330 -51.69354 24176 ft 243 kts 263°
2026-05-05 13:46 -16.60458 -51.71118 24175 ft 243 kts 263°
2026-05-05 13:46 -16.60583 -51.72863 24177 ft 243 kts 263°
2026-05-05 13:47 -16.60713 -51.74627 24176 ft 243 kts 263°
2026-05-05 13:47 -16.60837 -51.76380 24174 ft 244 kts 262°
2026-05-05 13:47 -16.60966 -51.78146 24173 ft 244 kts 263°
2026-05-05 13:47 -16.61088 -51.79882 24174 ft 244 kts 263°
2026-05-05 13:48 -16.61216 -51.81650 24175 ft 244 kts 263°
2026-05-05 13:48 -16.61344 -51.83419 24173 ft 244 kts 263°
2026-05-05 13:48 -16.61467 -51.85173 24173 ft 244 kts 263°
2026-05-05 13:48 -16.61596 -51.86950 24174 ft 244 kts 263°
2026-05-05 13:49 -16.61722 -51.88713 24174 ft 244 kts 263°
2026-05-05 13:49 -16.61849 -51.90458 24173 ft 244 kts 263°
2026-05-05 13:49 -16.61974 -51.92241 24174 ft 244 kts 263°
2026-05-05 13:49 -16.62100 -51.94004 24174 ft 244 kts 263°
2026-05-05 13:50 -16.62226 -51.95751 24175 ft 244 kts 263°
2026-05-05 13:50 -16.62350 -51.97522 24173 ft 244 kts 263°
2026-05-05 13:50 -16.62478 -51.99283 24170 ft 244 kts 263°
2026-05-05 13:50 -16.62599 -52.01032 24173 ft 244 kts 263°
2026-05-05 13:51 -16.62726 -52.02804 24175 ft 244 kts 263°
2026-05-05 13:51 -16.62850 -52.04574 24175 ft 244 kts 263°
2026-05-05 13:51 -16.62978 -52.06344 24175 ft 244 kts 263°
2026-05-05 13:51 -16.63099 -52.08107 24175 ft 244 kts 263°
2026-05-05 13:52 -16.63221 -52.09872 24176 ft 244 kts 263°
2026-05-05 13:52 -16.63346 -52.11620 24174 ft 244 kts 262°
2026-05-05 13:52 -16.63471 -52.13400 24175 ft 244 kts 263°
2026-05-05 13:52 -16.63597 -52.15142 24178 ft 244 kts 263°
2026-05-05 13:53 -16.63723 -52.16923 24176 ft 245 kts 263°
2026-05-05 13:53 -16.63846 -52.18681 24178 ft 244 kts 263°
2026-05-05 13:53 -16.63969 -52.20449 24176 ft 244 kts 263°
2026-05-05 13:53 -16.64089 -52.22214 24177 ft 244 kts 263°
2026-05-05 13:54 -16.64216 -52.23975 24178 ft 244 kts 263°
2026-05-05 13:54 -16.64338 -52.25735 24180 ft 244 kts 263°
2026-05-05 13:54 -16.64460 -52.27506 24178 ft 244 kts 263°
2026-05-05 13:54 -16.64585 -52.29268 24174 ft 244 kts 263°
2026-05-05 13:55 -16.64708 -52.31049 24173 ft 245 kts 263°
2026-05-05 13:55 -16.64829 -52.32804 24171 ft 245 kts 263°
2026-05-05 13:55 -16.64953 -52.34582 24170 ft 245 kts 263°
2026-05-05 13:55 -16.65074 -52.36349 24168 ft 245 kts 263°
2026-05-05 13:56 -16.65194 -52.38112 24166 ft 245 kts 263°
2026-05-05 13:56 -16.65318 -52.39880 24166 ft 245 kts 263°
2026-05-05 13:56 -16.65437 -52.41632 24163 ft 245 kts 263°
2026-05-05 13:56 -16.65559 -52.43399 24163 ft 245 kts 263°
2026-05-05 13:57 -16.65682 -52.45174 24161 ft 245 kts 263°
2026-05-05 13:57 -16.65805 -52.46934 24159 ft 245 kts 263°
2026-05-05 13:57 -16.65924 -52.48712 24156 ft 245 kts 263°
2026-05-05 13:57 -16.66046 -52.50483 24155 ft 245 kts 263°
2026-05-05 13:58 -16.66167 -52.52248 24156 ft 245 kts 263°
2026-05-05 13:58 -16.66289 -52.54032 24154 ft 245 kts 263°
2026-05-05 13:58 -16.66411 -52.55797 24153 ft 246 kts 263°
2026-05-05 13:58 -16.66532 -52.57562 24152 ft 246 kts 263°
2026-05-05 13:59 -16.66774 -52.61118 24152 ft 245 kts 263°
2026-05-05 13:59 -16.66894 -52.62878 24152 ft 245 kts 263°
2026-05-05 14:00 -16.67135 -52.66441 24150 ft 245 kts 264°
2026-05-05 14:00 -16.67215 -52.67630 24150 ft 245 kts 263°
2026-05-05 14:00 -16.67373 -52.69982 24150 ft 245 kts 263°
2026-05-05 14:00 -16.67490 -52.71740 24151 ft 246 kts 263°
2026-05-05 14:01 -16.67614 -52.73537 24152 ft 246 kts 263°
2026-05-05 14:01 -16.67732 -52.75308 24150 ft 246 kts 263°
2026-05-05 14:01 -16.67851 -52.77075 24150 ft 246 kts 263°
2026-05-05 14:01 -16.67971 -52.78854 24149 ft 246 kts 263°
2026-05-05 14:02 -16.68092 -52.80618 24148 ft 246 kts 263°
2026-05-05 14:02 -16.68210 -52.82409 24149 ft 246 kts 263°
2026-05-05 14:02 -16.68328 -52.84164 24148 ft 246 kts 263°
2026-05-05 14:02 -16.68448 -52.85951 24147 ft 246 kts 263°
2026-05-05 14:03 -16.68563 -52.87726 24146 ft 246 kts 263°
2026-05-05 14:03 -16.68683 -52.89500 24145 ft 246 kts 263°
2026-05-05 14:03 -16.68801 -52.91282 24145 ft 246 kts 263°
2026-05-05 14:03 -16.68918 -52.93049 24143 ft 246 kts 263°
2026-05-05 14:04 -16.69038 -52.94835 24145 ft 246 kts 263°
2026-05-05 14:04 -16.69154 -52.96598 24143 ft 246 kts 263°
2026-05-05 14:04 -16.69273 -52.98386 24143 ft 246 kts 263°
2026-05-05 14:04 -16.69388 -53.00160 24143 ft 246 kts 263°
2026-05-05 14:05 -16.69505 -53.01916 24143 ft 246 kts 263°
2026-05-05 14:05 -16.69623 -53.03693 24144 ft 246 kts 263°
2026-05-05 14:05 -16.69743 -53.05470 24145 ft 246 kts 264°
2026-05-05 14:05 -16.69858 -53.07250 24146 ft 246 kts 263°
2026-05-05 14:06 -16.69978 -53.09033 24149 ft 246 kts 263°
2026-05-05 14:06 -16.70011 -53.10802 24153 ft 247 kts 271°
2026-05-05 14:06 -16.69870 -53.12591 24151 ft 247 kts 272°
2026-05-05 14:06 -16.69731 -53.14391 24152 ft 247 kts 272°
2026-05-05 14:07 -16.69599 -53.16158 24155 ft 247 kts 272°
2026-05-05 14:07 -16.69465 -53.17962 24158 ft 247 kts 272°
2026-05-05 14:07 -16.69332 -53.19726 24159 ft 247 kts 272°
2026-05-05 14:07 -16.69198 -53.21518 24159 ft 247 kts 271°
2026-05-05 14:08 -16.69067 -53.23304 24161 ft 247 kts 271°
2026-05-05 14:08 -16.68937 -53.25078 24163 ft 248 kts 271°
2026-05-05 14:08 -16.68802 -53.26880 24165 ft 248 kts 272°
2026-05-05 14:08 -16.68671 -53.28676 24166 ft 248 kts 272°
2026-05-05 14:09 -16.68537 -53.30457 24166 ft 248 kts 272°
2026-05-05 14:09 -16.68405 -53.32270 24166 ft 248 kts 272°
2026-05-05 14:09 -16.68269 -53.34046 24165 ft 248 kts 271°
2026-05-05 14:09 -16.68137 -53.35849 24165 ft 248 kts 272°
2026-05-05 14:10 -16.68005 -53.37635 24165 ft 248 kts 272°
2026-05-05 14:10 -16.67870 -53.39419 24164 ft 248 kts 272°
2026-05-05 14:10 -16.67738 -53.41214 24164 ft 248 kts 272°
2026-05-05 14:10 -16.67606 -53.42998 24164 ft 248 kts 272°
2026-05-05 14:11 -16.67469 -53.44795 24163 ft 248 kts 272°
2026-05-05 14:11 -16.67334 -53.46604 24165 ft 248 kts 272°
2026-05-05 14:11 -16.67201 -53.48373 24165 ft 249 kts 272°
2026-05-05 14:11 -16.67067 -53.50176 24166 ft 249 kts 272°
2026-05-05 14:12 -16.66928 -53.51975 24164 ft 249 kts 272°
2026-05-05 14:12 -16.66794 -53.53775 24166 ft 249 kts 272°
2026-05-05 14:12 -16.66659 -53.55558 24166 ft 249 kts 272°
2026-05-05 14:12 -16.66524 -53.57363 24167 ft 249 kts 272°
2026-05-05 14:13 -16.66384 -53.59195 23907 ft 258 kts 272°
2026-05-05 14:13 -16.66246 -53.61066 23623 ft 263 kts 272°
2026-05-05 14:13 -16.66099 -53.62973 23334 ft 267 kts 272°
2026-05-05 14:13 -16.65953 -53.64921 23042 ft 271 kts 273°
2026-05-05 14:14 -16.65806 -53.66888 22750 ft 274 kts 273°
2026-05-05 14:14 -16.65657 -53.68862 22458 ft 276 kts 274°
2026-05-05 14:14 -16.65505 -53.70860 22165 ft 277 kts 274°
2026-05-05 14:14 -16.65349 -53.72869 21871 ft 278 kts 274°
2026-05-05 14:15 -16.65195 -53.74881 21578 ft 279 kts 274°
2026-05-05 14:15 -16.65041 -53.76899 21285 ft 279 kts 274°
2026-05-05 14:15 -16.64883 -53.78917 20989 ft 280 kts 274°
2026-05-05 14:15 -16.64731 -53.80937 20695 ft 280 kts 274°
2026-05-05 14:16 -16.64577 -53.82931 20409 ft 280 kts 274°
2026-05-05 14:16 -16.64419 -53.84976 20115 ft 281 kts 274°
2026-05-05 14:16 -16.64265 -53.86977 19827 ft 281 kts 274°
2026-05-05 14:16 -16.64108 -53.89018 19530 ft 279 kts 274°
2026-05-05 14:17 -16.63957 -53.91014 19235 ft 278 kts 274°
2026-05-05 14:17 -16.63800 -53.93035 18937 ft 277 kts 274°
2026-05-05 14:17 -16.63648 -53.95010 18647 ft 277 kts 274°
2026-05-05 14:17 -16.63495 -53.97013 18353 ft 276 kts 274°
2026-05-05 14:18 -16.63339 -53.99004 18063 ft 276 kts 274°
2026-05-05 14:18 -16.63184 -54.01009 17766 ft 276 kts 274°
2026-05-05 14:18 -16.63030 -54.02989 17477 ft 276 kts 274°
2026-05-05 14:18 -16.62883 -54.04993 17186 ft 276 kts 274°
2026-05-05 14:19 -16.62726 -54.06987 16900 ft 276 kts 274°
2026-05-05 14:19 -16.62570 -54.08971 16617 ft 276 kts 274°
2026-05-05 14:19 -16.62414 -54.10965 16332 ft 277 kts 274°
2026-05-05 14:19 -16.62260 -54.12967 16047 ft 277 kts 274°
2026-05-05 14:20 -16.62104 -54.14958 15744 ft 278 kts 274°
2026-05-05 14:20 -16.61945 -54.16950 15384 ft 276 kts 274°
2026-05-05 14:20 -16.61791 -54.18954 15026 ft 275 kts 275°
2026-05-05 14:20 -16.61637 -54.20935 14671 ft 275 kts 274°
2026-05-05 14:21 -16.61695 -54.22913 14315 ft 275 kts 265°
2026-05-05 14:21 -16.61755 -54.24902 13959 ft 275 kts 271°
2026-05-05 14:21 -16.61648 -54.26881 13614 ft 275 kts 273°
2026-05-05 14:21 -16.61514 -54.28866 13261 ft 275 kts 275°
2026-05-05 14:22 -16.61368 -54.30849 12906 ft 276 kts 275°
2026-05-05 14:22 -16.61208 -54.32825 12561 ft 275 kts 275°
2026-05-05 14:22 -16.61056 -54.34806 12218 ft 275 kts 276°
2026-05-05 14:22 -16.60900 -54.36808 11870 ft 275 kts 275°
2026-05-05 14:23 -16.60740 -54.38787 11523 ft 275 kts 276°
2026-05-05 14:23 -16.60588 -54.40761 11176 ft 275 kts 276°
2026-05-05 14:23 -16.60429 -54.42748 10824 ft 275 kts 276°
2026-05-05 14:23 -16.60269 -54.44719 10475 ft 267 kts 277°
2026-05-05 14:24 -16.60126 -54.46601 10123 ft 257 kts 276°
2026-05-05 14:24 -16.59979 -54.48420 9763 ft 250 kts 276°
2026-05-05 14:24 -16.59840 -54.50208 9409 ft 245 kts 277°
2026-05-05 14:24 -16.59703 -54.51971 9053 ft 241 kts 277°
2026-05-05 14:25 -16.59560 -54.53701 8702 ft 238 kts 277°
2026-05-05 14:25 -16.59427 -54.55406 8348 ft 236 kts 277°
2026-05-05 14:25 -16.59293 -54.57088 7977 ft 233 kts 277°
2026-05-05 14:25 -16.59158 -54.58754 7508 ft 232 kts 277°
2026-05-05 14:26 -16.59026 -54.60422 7042 ft 231 kts 277°
2026-05-05 14:26 -16.58891 -54.62099 6574 ft 231 kts 278°
2026-05-05 14:26 -16.58760 -54.63758 6110 ft 230 kts 278°
2026-05-05 14:26 -16.58625 -54.65413 5644 ft 230 kts 278°
2026-05-05 14:27 -16.58495 -54.67057 5176 ft 224 kts 278°
2026-05-05 14:27 -16.58374 -54.68599 4698 ft 210 kts 279°
2026-05-05 14:27 -16.58258 -54.70071 4221 ft 201 kts 279°
2026-05-05 14:27 -16.58127 -54.71497 3805 ft 191 kts 281°
2026-05-05 14:28 -16.57963 -54.72823 3485 ft 178 kts 282°
2026-05-05 14:28 -16.58137 -54.74048 3186 ft 176 kts 234°
2026-05-05 14:28 -16.59166 -54.74623 2973 ft 164 kts 193°
2026-05-05 14:28 -16.60213 -54.74888 2595 ft 151 kts 191°
2026-05-05 14:29 -16.61166 -54.74937 2542 ft 127 kts 156°
2026-05-05 14:29 -16.61788 -54.74356 2285 ft 120 kts 109°
2026-05-05 14:29 -16.61858 -54.73555 2143 ft 100 kts 77°
2026-05-05 14:29 -16.61645 -54.72890 1952 ft 100 kts 51°
2026-05-05 14:30 -16.61063 -54.72551 1815 ft 99 kts
2026-05-05 14:30 -16.60365 -54.72514 1662 ft 100 kts
2026-05-05 14:30 -16.59668 -54.72503 1526 ft 101 kts
2026-05-05 14:30 -16.59050 -54.72490 1450 ft 68 kts
2026-05-05 14:31 -16.58753 -54.72484 1446 ft 19 kts
2026-05-05 14:31 -16.58688 -54.72481 1445 ft 6 kts 254°
2026-05-05 14:31 -16.58753 -54.72487 1446 ft 11 kts 178°
2026-05-05 14:31 -16.58835 -54.72481 1447 ft 11 kts 154°
2026-05-05 14:32 -16.58859 -54.72427 1448 ft 6 kts 92°
2026-05-05 14:32 -16.58860 -54.72383 1448 ft 5 kts 92°
2026-05-05 14:32 -16.58862 -54.72351 1449 ft 4 kts 110°
2026-05-05 14:32 -16.58903 -54.72346 1449 ft 8 kts 180°
2026-05-05 14:33 -16.58967 -54.72346 1450 ft 8 kts 181°
2026-05-05 14:33 -16.59017 -54.72346 1451 ft 5 kts 153°
2026-05-05 14:33 -16.59026 -54.72313 1452 ft 6 kts 90°
2026-05-05 14:33 -16.59027 -54.72255 1452 ft 3 kts 88°
2026-05-05 14:34 -16.59013 -54.72228 1452 ft 2 kts 80°
2026-05-05 14:34 -16.59023 -54.72217 1452 ft 0 kts 183°